Time,TemperatureF,DewpointF,PressureIn,WindDirection,WindDirectionDegrees,WindSpeedMPH,WindSpeedGustMPH,Humidity,HourlyPrecipIn,Conditions,Clouds,dailyrainin,SoftwareType,DateUTC
2013-02-14 00:00:00,35.6,23.1,29.06,NE,45,0.0,0.0,60,0.00,,,0.00,VWS V14.01,2013-02-14 05:00:00,
2013-02-14 00:01:00,35.6,23.1,29.06,NE,45,0.0,0.0,60,0.00,,,0.00,VWS V14.01,2013-02-14 05:01:00,
2013-02-14 00:06:00,35.6,23.1,29.09,NE,45,0.0,0.0,60,0.00,,,0.00,VWS V14.01,2013-02-14 05:06:00,
2013-02-14 00:11:00,35.6,23.1,29.09,NE,45,0.0,0.0,60,0.00,,,0.00,VWS V14.01,2013-02-14 05:11:00,
2013-02-14 00:16:00,35.6,23.1,29.09,NE,45,0.0,0.0,60,0.00,,,0.00,VWS V14.01,2013-02-14 05:16:00,
2013-02-14 00:21:00,35.6,23.1,29.09,NE,45,0.0,0.0,60,0.00,,,0.00,VWS V14.01,2013-02-14 05:21:00,
2013-02-14 00:26:00,35.8,23.3,29.09,NNW,339,0.0,0.0,60,0.00,,,0.00,VWS V14.01,2013-02-14 05:26:00,
2013-02-14 00:31:00,36.1,23.6,29.09,NNW,329,0.0,0.0,60,0.00,,,0.00,VWS V14.01,2013-02-14 05:31:00,
2013-02-14 00:36:00,36.3,24.2,29.09,NNW,337,0.0,0.0,61,0.00,,,0.00,VWS V14.01,2013-02-14 05:36:00,
2013-02-14 00:41:00,36.3,24.2,29.09,NNW,337,0.0,0.0,61,0.00,,,0.00,VWS V14.01,2013-02-14 05:41:00,
2013-02-14 00:46:00,36.5,24.3,29.09,NNW,337,0.0,0.0,61,0.00,,,0.00,VWS V14.01,2013-02-14 05:46:00,
2013-02-14 00:51:00,36.7,24.5,29.09,NNW,337,0.0,0.0,61,0.00,,,0.00,VWS V14.01,2013-02-14 05:51:00,
2013-02-14 00:56:00,36.7,24.5,29.09,NNW,337,0.0,0.0,61,0.00,,,0.00,VWS V14.01,2013-02-14 05:56:00,
2013-02-14 01:01:00,36.7,24.5,29.09,NNW,337,0.0,0.0,61,0.00,,,0.00,VWS V14.01,2013-02-14 06:01:00,
2013-02-14 01:06:00,36.5,24.3,29.12,NNW,337,0.0,0.0,61,0.00,,,0.00,VWS V14.01,2013-02-14 06:06:00,
2013-02-14 01:11:00,36.5,24.3,29.12,North,0,0.0,0.0,61,0.00,,,0.00,VWS V14.01,2013-02-14 06:11:00,
2013-02-14 01:16:00,36.5,24.7,29.12,NNW,348,0.0,5.4,62,0.00,,,0.00,VWS V14.01,2013-02-14 06:16:00,
2013-02-14 01:21:00,36.7,24.9,29.12,North,353,0.0,0.0,62,0.00,,,0.00,VWS V14.01,2013-02-14 06:21:00,
2013-02-14 01:26:00,36.7,24.9,29.12,North,0,2.2,2.2,62,0.00,,,0.00,VWS V14.01,2013-02-14 06:26:00,
2013-02-14 01:31:00,36.7,24.9,29.12,North,353,0.0,0.0,62,0.00,,,0.00,VWS V14.01,2013-02-14 06:31:00,
2013-02-14 01:36:00,36.9,25.1,29.12,North,353,0.0,0.0,62,0.00,,,0.00,VWS V14.01,2013-02-14 06:36:00,
2013-02-14 01:41:00,36.9,24.7,29.12,North,0,0.0,0.0,61,0.00,,,0.00,VWS V14.01,2013-02-14 06:41:00,
2013-02-14 01:46:00,36.9,24.7,29.12,NNW,343,2.7,2.7,61,0.00,,,0.00,VWS V14.01,2013-02-14 06:46:00,
2013-02-14 01:51:00,36.9,24.3,29.12,North,353,0.0,0.0,60,0.00,,,0.00,VWS V14.01,2013-02-14 06:51:00,
2013-02-14 01:56:00,36.9,23.9,29.12,NE,41,0.0,0.0,59,0.00,,,0.00,VWS V14.01,2013-02-14 06:56:00,
2013-02-14 02:01:00,37.0,23.6,29.12,North,357,0.0,0.0,58,0.00,,,0.00,VWS V14.01,2013-02-14 07:01:00,
2013-02-14 02:06:00,37.0,23.6,29.12,North,0,0.0,0.0,58,0.00,,,0.00,VWS V14.01,2013-02-14 07:06:00,
2013-02-14 02:11:00,37.0,23.2,29.12,North,0,0.0,0.0,57,0.00,,,0.00,VWS V14.01,2013-02-14 07:11:00,
2013-02-14 02:16:00,37.0,23.2,29.12,North,0,0.0,0.0,57,0.00,,,0.00,VWS V14.01,2013-02-14 07:16:00,
2013-02-14 02:21:00,37.0,23.2,29.12,North,349,0.0,0.0,57,0.00,,,0.00,VWS V14.01,2013-02-14 07:21:00,
2013-02-14 02:26:00,36.9,23.1,29.12,North,353,0.0,0.0,57,0.00,,,0.00,VWS V14.01,2013-02-14 07:26:00,
2013-02-14 02:31:00,36.7,22.5,29.12,North,353,0.0,0.0,56,0.00,,,0.00,VWS V14.01,2013-02-14 07:31:00,
2013-02-14 02:36:00,36.5,22.3,29.12,North,353,0.0,0.0,56,0.00,,,0.00,VWS V14.01,2013-02-14 07:36:00,
2013-02-14 02:41:00,36.3,22.1,29.12,North,353,0.0,0.0,56,0.00,,,0.00,VWS V14.01,2013-02-14 07:41:00,
2013-02-14 02:46:00,36.1,22.0,29.12,North,353,0.0,0.0,56,0.00,,,0.00,VWS V14.01,2013-02-14 07:46:00,
2013-02-14 02:51:00,36.1,22.0,29.15,North,353,0.0,0.0,56,0.00,,,0.00,VWS V14.01,2013-02-14 07:51:00,
2013-02-14 02:56:00,35.8,21.6,29.15,North,353,0.0,0.0,56,0.00,,,0.00,VWS V14.01,2013-02-14 07:56:00,
2013-02-14 03:01:00,35.8,21.6,29.15,North,353,0.0,0.0,56,0.00,,,0.00,VWS V14.01,2013-02-14 08:01:00,
2013-02-14 03:06:00,35.8,21.6,29.15,North,353,0.0,0.0,56,0.00,,,0.00,VWS V14.01,2013-02-14 08:06:00,
2013-02-14 03:11:00,35.8,21.6,29.15,North,353,0.0,0.0,56,0.00,,,0.00,VWS V14.01,2013-02-14 08:11:00,
2013-02-14 03:16:00,35.8,21.6,29.15,North,353,0.0,0.0,56,0.00,,,0.00,VWS V14.01,2013-02-14 08:16:00,
2013-02-14 03:21:00,35.8,21.6,29.15,North,353,0.0,0.0,56,0.00,,,0.00,VWS V14.01,2013-02-14 08:21:00,
2013-02-14 03:26:00,35.6,21.5,29.15,North,353,0.0,0.0,56,0.00,,,0.00,VWS V14.01,2013-02-14 08:26:00,
2013-02-14 21:08:00,35.6,11.3,29.26,NE,38,0.0,0.0,36,0.00,,,0.00,VWS V14.01,2013-02-15 02:08:00,
2013-02-14 21:13:00,35.4,11.8,29.26,NE,38,0.0,0.0,37,0.00,,,0.00,VWS V14.01,2013-02-15 02:13:00,
2013-02-14 21:18:00,35.4,11.8,29.26,NE,38,0.0,0.0,37,0.00,,,0.00,VWS V14.01,2013-02-15 02:18:00,
2013-02-14 21:23:00,35.2,12.2,29.26,NE,38,0.0,0.0,38,0.00,,,0.00,VWS V14.01,2013-02-15 02:23:00,
2013-02-14 21:28:00,35.2,12.2,29.26,NE,38,0.0,0.0,38,0.00,,,0.00,VWS V14.01,2013-02-15 02:28:00,
2013-02-14 21:33:00,35.2,12.8,29.26,NE,38,0.0,0.0,39,0.00,,,0.00,VWS V14.01,2013-02-15 02:33:00,
2013-02-14 21:38:00,35.2,12.8,29.26,NE,38,0.0,0.0,39,0.00,,,0.00,VWS V14.01,2013-02-15 02:38:00,
2013-02-14 21:43:00,35.2,12.8,29.26,NE,38,0.0,0.0,39,0.00,,,0.00,VWS V14.01,2013-02-15 02:43:00,
2013-02-14 21:48:00,35.2,13.4,29.26,NE,38,0.0,0.0,40,0.00,,,0.00,VWS V14.01,2013-02-15 02:48:00,
2013-02-14 21:53:00,35.2,13.4,29.26,NE,38,0.0,0.0,40,0.00,,,0.00,VWS V14.01,2013-02-15 02:53:00,
2013-02-14 21:58:00,34.9,12.4,29.26,NE,38,0.0,0.0,39,0.00,,,0.00,VWS V14.01,2013-02-15 02:58:00,
2013-02-14 22:03:00,34.5,12.7,29.26,NE,38,0.0,0.0,40,0.00,,,0.00,VWS V14.01,2013-02-15 03:03:00,
2013-02-14 22:08:00,34.5,12.7,29.26,NE,38,0.0,0.0,40,0.00,,,0.00,VWS V14.01,2013-02-15 03:08:00,
2013-02-14 22:13:00,34.3,12.5,29.26,NE,38,0.0,0.0,40,0.00,,,0.00,VWS V14.01,2013-02-15 03:13:00,
2013-02-14 22:18:00,34.3,12.5,29.26,NE,38,0.0,0.0,40,0.00,,,0.00,VWS V14.01,2013-02-15 03:18:00,
2013-02-14 22:23:00,34.0,12.2,29.26,NE,38,0.0,0.0,40,0.00,,,0.00,VWS V14.01,2013-02-15 03:23:00,
2013-02-14 22:28:00,33.8,12.1,29.26,NE,38,0.0,0.0,40,0.00,,,0.00,VWS V14.01,2013-02-15 03:28:00,
2013-02-14 22:33:00,33.8,12.1,29.23,NE,38,0.0,0.0,40,0.00,,,0.00,VWS V14.01,2013-02-15 03:33:00,
2013-02-14 22:38:00,33.6,11.9,29.23,NE,38,0.0,0.0,40,0.00,,,0.00,VWS V14.01,2013-02-15 03:38:00,
2013-02-14 22:43:00,33.4,12.3,29.23,NE,38,0.0,0.0,41,0.00,,,0.00,VWS V14.01,2013-02-15 03:43:00,
2013-02-14 22:48:00,33.3,12.1,29.23,NE,38,0.0,0.0,41,0.00,,,0.00,VWS V14.01,2013-02-15 03:48:00,
2013-02-14 22:53:00,33.1,12.0,29.23,NE,38,0.0,0.0,41,0.00,,,0.00,VWS V14.01,2013-02-15 03:53:00,
2013-02-14 22:58:00,33.1,12.0,29.23,NE,38,0.0,0.0,41,0.00,,,0.00,VWS V14.01,2013-02-15 03:58:00,
2013-02-14 23:03:00,33.1,12.0,29.23,NE,38,0.0,0.0,41,0.00,,,0.00,VWS V14.01,2013-02-15 04:03:00,
2013-02-14 23:08:00,33.1,12.0,29.23,NE,38,0.0,0.0,41,0.00,,,0.00,VWS V14.01,2013-02-15 04:08:00,
2013-02-14 23:13:00,33.1,12.0,29.23,NE,38,0.0,0.0,41,0.00,,,0.00,VWS V14.01,2013-02-15 04:13:00,
2013-02-14 23:18:00,33.1,12.0,29.23,NE,38,0.0,0.0,41,0.00,,,0.00,VWS V14.01,2013-02-15 04:18:00,
2013-02-14 23:23:00,33.4,12.3,29.23,NE,38,0.0,0.0,41,0.00,,,0.00,VWS V14.01,2013-02-15 04:23:00,
2013-02-14 23:28:00,33.6,12.4,29.23,NE,38,0.0,0.0,41,0.00,,,0.00,VWS V14.01,2013-02-15 04:28:00,
2013-02-14 23:33:00,33.6,12.4,29.26,NE,38,0.0,0.0,41,0.00,,,0.00,VWS V14.01,2013-02-15 04:33:00,
2013-02-14 23:38:00,33.6,12.4,29.26,NE,38,0.0,0.0,41,0.00,,,0.00,VWS V14.01,2013-02-15 04:38:00,
2013-02-14 23:43:00,34.0,12.8,29.26,North,353,0.0,0.0,41,0.00,,,0.00,VWS V14.01,2013-02-15 04:43:00,
2013-02-14 23:48:00,34.2,12.9,29.26,NNW,345,0.0,0.0,41,0.00,,,0.00,VWS V14.01,2013-02-15 04:48:00,
2013-02-14 23:53:00,34.5,13.3,29.26,NE,43,0.0,0.0,41,0.00,,,0.00,VWS V14.01,2013-02-15 04:53:00,
2013-02-14 23:58:00,34.5,13.3,29.26,ESE,109,0.0,3.1,41,0.00,,,0.00,VWS V14.01,2013-02-15 04:58:00,